Date String (YYYY-MM-DD hh:mm:ss) UTC,Instrument flags,absolute air pressure of the measurement (hPa),sample flow rate (lpm),inlet stack bypass flow (lpm),air temperature of the measurement (°C),ambient temperature measured by the external sensor (°C),aerosol sample conditioner tube jacket temperature (°C),OPC LED temperature (°C),internal box temperature (°C),relative humidity of the measurement (%),span deviation,mass concentration of particles derived from Lorenz-Mie calculation of OPC scattering (μg/m³),mass concentration of particles derived from Lorenz-Mie calculation of OPC scattering (μg/m³),mass concentration of particles derived from Lorenz-Mie calculation of OPC scattering (μg/m³)
DateTimeUTC,F1_M11,P_M11,Q1_M11,Q2_M11,T1_M11,T2_M11,T3_M11,T4_M11,T5_M11,U1_M11,ZSPAN_M11,X2_M11,X0_M11,X1_M11
2024-02-11 17:00:00,SystemResetWarning,0829.3,5.00,000.00,018.4,018.1,000.0,026.8,020.2,14.0,0000.0,0005.37,0008.38,0005.14
2024-02-11 17:01:00,SystemResetWarning,0829.4,4.99,000.00,018.4,018.1,000.0,026.8,020.2,13.9,0000.0,0005.33,0008.30,0005.13
2024-02-11 17:02:00,SystemResetWarning,0829.3,5.00,000.00,018.4,018.1,000.0,026.8,020.2,14.0,0000.0,0005.33,0008.35,0005.13
2024-02-11 17:03:00,SystemResetWarning,0829.4,5.00,000.00,018.4,018.1,000.0,026.8,020.2,13.8,0000.0,0005.33,0008.36,0005.12
2024-02-11 17:04:00,SystemResetWarning,0829.3,5.00,000.00,018.4,018.1,000.0,026.8,020.2,14.1,0000.0,0005.34,0008.15,0005.12
2024-02-11 17:05:00,SystemResetWarning,0829.3,5.00,000.00,018.4,018.1,000.0,026.8,020.2,13.8,0000.0,0005.35,0008.45,0005.11
2024-02-11 17:06:00,SystemResetWarning,0829.3,5.00,000.00,018.4,018.1,000.0,026.8,020.2,13.7,0000.0,0005.35,0008.64,0005.11
2024-02-11 17:07:00,SystemResetWarning,0829.3,5.00,000.00,018.4,018.1,000.0,026.8,020.2,13.9,0000.0,0005.34,0009.06,0005.11
2024-02-11 17:08:00,SystemResetWarning,0829.4,5.00,000.00,018.5,018.1,000.0,026.8,020.2,14.2,0000.0,0005.36,0009.13,0005.11
2024-02-11 17:09:00,SystemResetWarning,0829.4,5.01,000.00,018.5,018.2,000.0,026.8,020.2,14.6,0000.0,0005.37,0009.06,0005.11
2024-02-11 17:10:00,SystemResetWarning,0829.4,5.00,000.00,018.5,018.2,000.0,026.8,020.3,14.6,0000.0,0005.35,0008.90,0005.12
2024-02-11 17:11:00,SystemResetWarning,0829.4,5.01,000.00,018.5,018.2,000.0,026.8,020.3,14.3,0000.0,0005.36,0008.90,0005.12
2024-02-11 17:12:00,SystemResetWarning,0829.4,5.00,000.00,018.5,018.2,000.0,026.8,020.3,14.2,0000.0,0005.39,0008.89,0005.14
2024-02-11 17:13:00,SystemResetWarning,0829.4,4.99,000.00,018.5,018.2,000.0,026.8,020.3,14.1,0000.0,0005.38,0008.76,0005.15
2024-02-11 17:14:00,SystemResetWarning,0829.4,5.00,000.00,018.5,018.2,000.0,026.8,020.3,14.0,0000.0,0005.39,0008.74,0005.16
2024-02-11 17:15:00,SystemResetWarning,0829.4,5.00,000.00,018.5,018.2,000.0,026.9,020.3,14.0,0000.0,0005.42,0008.56,0005.16
2024-02-11 17:16:00,SystemResetWarning,0829.5,5.00,000.00,018.5,018.2,000.0,026.9,020.3,13.7,0000.0,0005.44,0008.38,0005.18
2024-02-11 17:17:00,SystemResetWarning,0829.4,5.00,000.00,018.5,018.2,000.0,026.9,020.3,14.0,0000.0,0005.44,0008.12,0005.20
2024-02-11 17:18:00,SystemResetWarning,0829.5,5.01,000.00,018.5,018.2,000.0,026.9,020.3,14.1,0000.0,0005.45,0007.76,0005.21
2024-02-11 17:19:00,SystemResetWarning,0829.5,5.01,000.00,018.6,018.2,000.0,026.9,020.3,14.5,0000.0,0005.46,0007.63,0005.21
2024-02-11 17:20:00,SystemResetWarning,0829.4,5.00,000.00,018.6,018.3,000.0,026.9,020.3,14.4,0000.0,0005.47,0007.65,0005.22
2024-02-11 17:21:00,SystemResetWarning,0829.5,4.99,000.00,018.6,018.3,000.0,026.9,020.4,13.9,0000.0,0005.48,0007.67,0005.21
2024-02-11 17:22:00,SystemResetWarning,0829.5,4.99,000.00,018.6,018.3,000.0,026.9,020.3,14.3,0000.0,0005.49,0007.74,0005.21
2024-02-11 17:23:00,SystemResetWarning,0829.5,5.00,000.00,018.6,018.3,000.0,026.9,020.3,14.2,0000.0,0005.46,0007.68,0005.19
2024-02-11 17:24:00,SystemResetWarning,0829.5,5.01,000.00,018.6,018.3,000.0,026.9,020.4,14.1,0000.0,0005.44,0007.96,0005.18
2024-02-11 17:25:00,SystemResetWarning,0829.5,5.00,000.00,018.6,018.3,000.0,026.9,020.3,14.4,0000.0,0005.45,0008.13,0005.18
2024-02-11 17:26:00,SystemResetWarning,0829.6,4.99,000.00,018.6,018.3,000.0,026.9,020.4,14.4,0000.0,0005.43,0008.07,0005.19
2024-02-11 17:27:00,SystemResetWarning,0829.6,4.99,000.00,018.6,018.3,000.0,026.9,020.4,14.5,0000.0,0005.41,0007.97,0005.20
2024-02-11 17:28:00,SystemResetWarning,0829.5,4.99,000.00,018.6,018.3,000.0,026.9,020.4,14.4,0000.0,0005.41,0007.98,0005.20
2024-02-11 17:29:00,SystemResetWarning,0829.5,5.00,000.00,018.6,018.3,000.0,027.0,020.4,14.4,0000.0,0005.41,0008.00,0005.20
2024-02-11 17:30:00,SystemResetWarning,0829.5,5.00,000.00,018.6,018.3,000.0,027.0,020.4,14.6,0000.0,0005.40,0007.96,0005.19
2024-02-11 17:31:00,SystemResetWarning,0829.5,5.00,000.00,018.7,018.3,000.0,027.0,020.4,14.7,0000.0,0005.38,0007.90,0005.19
2024-02-11 17:32:00,SystemResetWarning,0829.5,5.00,000.00,018.7,018.3,000.0,027.0,020.4,15.1,0000.0,0005.37,0007.97,0005.20
2024-02-11 17:33:00,SystemResetWarning,0829.5,5.00,000.00,018.7,018.3,000.0,027.0,020.4,14.6,0000.0,0005.38,0008.55,0005.22
2024-02-11 17:34:00,SystemResetWarning,0829.5,5.00,000.00,018.7,018.4,000.0,027.0,020.4,14.3,0000.0,0005.40,0008.72,0005.24
2024-02-11 17:35:00,SystemResetWarning,0829.5,5.00,000.00,018.7,018.4,000.0,027.0,020.5,14.0,0000.0,0005.43,0008.44,0005.27
2024-02-11 17:36:00,SystemResetWarning,0829.6,5.00,000.00,018.7,018.4,000.0,027.0,020.4,14.1,0000.0,0005.45,0008.87,0005.29
2024-02-11 17:37:00,SystemResetWarning,0829.5,5.00,000.00,018.7,018.4,000.0,027.0,020.4,14.1,0000.0,0005.48,0009.09,0005.30
2024-02-11 17:38:00,SystemResetWarning,0829.6,5.00,000.00,018.7,018.4,000.0,027.0,020.4,14.3,0000.0,0005.49,0009.11,0005.30
2024-02-11 17:39:00,SystemResetWarning,0829.6,5.00,000.00,018.8,018.4,000.0,027.0,020.5,14.7,0000.0,0005.50,0009.12,0005.30
2024-02-11 17:40:00,SystemResetWarning,0829.6,4.99,000.00,018.8,018.4,000.0,027.0,020.4,14.7,0000.0,0005.51,0009.09,0005.31
2024-02-11 17:41:00,SystemResetWarning,0829.6,5.00,000.00,018.8,018.5,000.0,027.0,020.5,14.3,0000.0,0005.50,0009.09,0005.31
2024-02-11 17:42:00,SystemResetWarning,0829.6,5.00,000.00,018.8,018.5,000.0,027.1,020.5,14.4,0000.0,0005.52,0009.71,0005.32
2024-02-11 17:43:00,SystemResetWarning,0829.5,5.00,000.00,018.8,018.5,000.0,027.1,020.5,14.5,0000.0,0005.54,0009.97,0005.32
2024-02-11 17:44:00,SystemResetWarning,0829.5,5.00,000.00,018.8,018.5,000.0,027.1,020.5,14.4,0000.0,0005.55,0009.90,0005.33
2024-02-11 17:45:00,SystemResetWarning,0829.5,5.00,000.00,018.8,018.5,000.0,027.1,020.5,14.7,0000.0,0005.54,0009.22,0005.32
2024-02-11 17:46:00,SystemResetWarning,0829.5,4.99,000.00,018.8,018.5,000.0,027.1,020.5,14.2,0000.0,0005.51,0009.02,0005.30
2024-02-11 17:47:00,SystemResetWarning,0829.5,4.99,000.00,018.9,018.5,000.0,027.1,020.6,14.1,0000.0,0005.52,0009.04,0005.29
2024-02-11 17:48:00,SystemResetWarning,0829.5,5.00,000.00,018.9,018.6,000.0,027.1,020.6,14.8,0000.0,0005.51,0008.34,0005.29
2024-02-11 17:49:00,SystemResetWarning,0829.5,5.00,000.00,018.9,018.6,000.0,027.1,020.6,15.2,0000.0,0005.50,0008.49,0005.28
2024-02-11 17:50:00,SystemResetWarning,0829.4,5.01,000.00,018.9,018.6,000.0,027.1,020.6,14.4,0000.0,0005.48,0008.64,0005.27
2024-02-11 17:51:00,SystemResetWarning,0829.4,5.01,000.00,018.9,018.6,000.0,027.1,020.6,14.5,0000.0,0005.45,0008.60,0005.26
2024-02-11 17:52:00,SystemResetWarning,0829.5,5.00,000.00,018.9,018.6,000.0,027.1,020.6,15.2,0000.0,0005.42,0008.62,0005.25
2024-02-11 17:53:00,SystemResetWarning,0829.4,5.00,000.00,018.9,018.6,000.0,027.2,020.6,15.7,0002.3,0005.41,0008.01,0005.24
2024-02-11 17:54:00,SystemResetWarning,0829.4,4.99,000.00,018.9,018.6,000.0,027.2,020.7,14.5,0000.2,0005.41,0007.79,0005.23
2024-02-11 17:55:00,SystemResetWarning,0829.5,4.99,000.00,019.0,018.6,000.0,027.2,020.7,13.6,0001.9,0005.41,0007.95,0005.21
2024-02-11 17:56:00,SystemResetWarning,0829.4,5.00,000.00,019.0,018.7,000.0,027.2,020.7,13.5,0001.6,0005.40,0007.99,0005.20
2024-02-11 17:57:00,SystemResetWarning,0829.4,5.01,000.00,019.0,018.7,000.0,027.2,020.7,14.1,0000.6,0005.40,0008.00,0005.18
2024-02-11 17:58:00,SystemResetWarning,0829.4,5.00,000.00,019.0,018.7,000.0,027.2,020.7,14.4,0001.2,0005.37,0007.97,0005.17
2024-02-11 17:59:00,SystemResetWarning,0829.4,4.99,000.00,019.0,018.7,000.0,027.2,020.7,14.3,0000.0,0005.34,0007.89,0005.15
